Location: Julian California
(33.0790°N, 116.6010°W)
Time: 11:15:31
(UTC-07:00)

Meteor 1-21 - Pass Details

Date: 14 June 2018
Orbit: 843 x 889 km, 81.2° (Epoch: 21 June)

Event Time Altitude Azimuth Distance (km) Brightness Sun altitude
Rises 20:29:58 0° 181° (S) 3,397 7.0 -6.8°
Reaches altitude 10° 20:32:22 10° 179° (S) 2,471 6.3 -7.2°
Maximum altitude 20:37:57 72° 96° (E) 904 4.2 -8.2°
Drops below altitude 10° 20:43:38 10° 13° (NNE) 2,516 7.0 -9.2°
Sets 20:46:05 0° 11° (N) 3,464 7.7 -9.6°
